Wind_Speed
8 8 8 7 7 6 6 7 8 9 8 9 10 11 11 11 11 12 12 11 10 10 10 11 11 11 10 9 9 8 8 8 8 8 8 7 7 7 7 8 8 8 8 8
10 10 10 9 9 9 9 10 10 10 11 10 12 12 11 11 13 12 13 12 11 10 10 10 11 10 10 9 9 9 9 9 9 9 9 9 8 8 8 9 9 9 9 9
12 11 12 11 11 11 11 12 11 10 9 10 12 14 12 11 12 14 14 13 12 11 11 10 10 10 9 9 9 9 9 9 9 9 10 10 10 9 9 10 10 10 10 10
14 13 15 13 13 12 13 13 11 10 10 11 12 15 13 11 12 14 14 14 13 12 11 10 10 10 9 10 9 9 9 9 10 10 10 11 11 10 10 10 11 11 11 11
15 15 16 15 14 14 14 12 11 12 13 13 11 13 13 13 12 14 16 15 14 13 12 11 10 10 10 10 10 9 9 9 10 11 11 11 11 11 11 11 12 12 12 13
16 15 16 16 15 14 13 12 11 12 14 14 11 13 15 14 15 15 16 15 14 13 13 12 11 11 11 11 11 10 10 11 11 11 11 11 11 12 12 13 13 13 13 14
15 16 16 16 16 15 14 12 11 12 13 13 11 13 16 15 15 16 17 14 14 13 13 13 12 12 11 12 12 11 12 12 12 12 11 11 12 12 13 13 14 14 14 14
15 16 15 16 17 16 15 14 15 15 14 13 14 15 16 14 13 15 16 15 16 15 13 13 13 13 12 12 13 13 13 13 13 12 12 12 12 13 14 14 14 15 15 14
16 17 15 17 17 17 16 15 16 16 15 15 13 13 15 15 16 17 16 17 16 15 14 14 14 13 13 13 13 13 14 14 13 13 12 13 13 14 14 14 15 15 15 14
19 19 16 16 16 17 17 15 15 16 15 14 14 14 16 15 17 18 17 17 16 14 15 15 14 14 14 14 14 14 13 14 14 13 13 13 14 14 14 15 15 15 15 16
20 20 17 16 17 17 16 16 16 16 16 14 16 16 17 18 18 17 17 17 16 15 16 15 15 14 14 14 14 14 13 14 14 14 14 14 15 14 14 14 15 16 17 18
22 21 19 19 19 18 18 18 17 17 18 18 17 19 20 18 14 15 16 17 17 16 16 15 15 15 15 14 14 14 14 14 14 14 14 15 15 15 15 15 16 17 19 20
24 23 21 19 18 18 18 19 19 19 20 19 18 21 20 17 17 17 18 18 17 17 16 15 15 15 16 15 14 15 15 15 15 15 15 15 15 15 16 17 17 19 20 21
25 25 24 22 19 19 20 22 22 20 20 20 21 22 21 20 21 20 18 19 19 18 17 16 16 16 16 16 16 16 17 17 17 17 16 16 16 17 17 18 19 20 21 22
26 26 26 25 22 21 22 22 22 21 20 21 22 23 23 21 19 19 19 19 19 19 18 16 16 16 16 16 17 17 18 18 18 17 17 17 17 18 19 20 21 22 22 23
27 28 26 26 24 23 24 22 21 22 22 22 22 23 23 20 21 22 22 21 21 20 18 17 17 17 18 17 17 17 17 17 17 17 17 17 18 19 20 22 23 23 24 26
26 26 26 26 24 24 25 22 23 24 24 23 23 22 21 21 22 22 22 22 22 22 20 18 18 18 19 19 19 18 18 17 17 18 17 18 19 20 22 24 24 25 27 27
25 25 25 24 24 26 24 23 23 24 23 23 24 24 23 23 23 22 22 22 22 21 20 19 18 18 18 19 18 18 18 18 18 19 19 20 21 22 24 25 26 27 28 27
26 26 25 24 24 25 23 22 22 23 23 23 22 23 23 24 23 23 23 23 22 20 19 19 18 18 18 19 19 19 19 19 19 20 21 22 23 24 25 26 26 26 26 26
25 25 25 24 23 22 21 22 20 22 23 22 22 23 23 23 23 23 24 23 22 21 20 20 19 19 19 19 19 19 20 20 20 21 22 23 24 25 25 25 25 25 25 26
24 25 25 24 23 22 20 21 20 22 23 22 22 23 22 23 22 22 23 22 22 21 21 21 20 20 20 20 20 20 20 20 21 22 23 24 24 25 25 25 25 25 25 26
24 25 25 24 23 23 22 20 21 21 22 23 23 23 24 23 22 22 23 22 21 22 21 21 20 20 20 21 21 21 20 20 21 22 23 24 25 25 25 25 25 26 27 27
24 24 24 25 25 24 23 23 22 21 22 23 23 24 24 24 23 23 24 23 22 22 21 21 21 21 21 21 22 21 21 21 22 23 23 24 25 25 26 26 26 27 27 27
24 23 24 25 25 25 25 26 25 23 24 25 25 25 25 25 24 23 23 23 23 23 23 23 23 22 22 22 22 22 22 22 23 24 23 24 25 25 25 26 26 27 27 27
24 23 25 27 27 27 27 29 29 27 26 26 26 25 24 24 24 23 23 23 22 23 24 24 24 24 24 23 23 24 23 23 24 24 24 24 25 25 25 25 25 26 27 27
24 26 27 27 27 28 27 27 29 30 30 29 27 26 25 25 24 24 24 24 23 24 24 25 25 25 24 24 23 23 23 23 23 23 24 25 25 25 26 25 26 27 28 28
Wind_Direction
229 236 248 251 251 235 242 261 268 278 280 281 283 288 305 318 326 328 328 328 332 334 336 342 345 347 351 353 355 356 358 1 359 356 357 353 349 344 340 336 332 324 324 326
233 237 247 252 256 250 246 254 259 271 278 281 285 279 293 308 313 317 318 323 323 324 325 334 341 341 343 346 350 350 350 349 350 348 345 345 341 338 336 336 333 326 323 324
238 240 246 246 248 248 247 253 255 258 269 272 277 279 278 295 307 308 309 314 317 311 317 325 329 332 334 339 339 341 342 339 337 338 338 340 338 333 333 333 332 328 324 325
235 236 244 243 245 249 250 250 251 258 264 266 267 279 283 284 301 304 310 310 311 311 311 318 321 323 325 329 332 332 333 332 331 332 332 333 335 332 330 330 329 327 322 322
234 235 242 245 243 245 246 243 244 248 256 259 264 269 278 286 294 299 304 304 303 305 308 313 314 314 314 319 322 321 325 325 325 327 330 330 330 329 329 330 330 327 325 324
230 237 248 248 247 248 247 244 246 255 261 264 258 266 271 277 287 290 297 301 299 300 307 308 310 309 308 310 310 310 314 318 319 321 324 324 324 326 327 328 327 326 326 324
232 232 241 245 246 243 240 240 250 258 262 263 262 259 267 281 285 290 300 301 296 298 301 304 309 307 304 304 304 306 307 310 313 314 317 318 321 322 324 323 322 322 322 324
238 239 237 243 246 245 242 235 245 253 267 267 261 260 267 279 277 287 297 298 293 293 296 301 306 306 302 300 300 300 303 304 306 309 312 314 317 319 321 322 320 320 321 324
236 238 239 245 248 246 243 239 244 252 258 265 271 273 271 276 282 290 292 293 293 292 293 296 300 301 303 303 299 297 299 300 302 305 308 309 311 316 319 320 322 322 322 322
235 241 231 237 245 248 249 245 246 245 255 256 266 267 266 271 280 283 284 288 290 288 292 294 295 297 298 301 302 299 296 297 298 299 301 303 308 313 316 317 318 323 323 322
236 241 238 236 239 240 246 248 243 246 251 255 266 268 266 271 276 276 284 291 290 292 292 291 292 294 297 296 295 298 294 293 293 296 299 302 306 309 314 316 318 320 321 322
236 238 240 239 240 242 241 243 242 244 250 253 260 270 265 272 276 280 281 288 291 293 289 288 288 289 293 294 291 290 295 294 291 291 297 303 306 307 310 315 316 317 317 319
231 235 239 244 244 242 240 240 240 243 251 257 258 266 269 268 270 274 278 282 283 285 287 286 287 287 290 292 291 287 292 297 293 295 297 302 304 306 308 311 315 317 316 316
234 235 237 240 240 242 243 240 240 242 249 254 255 265 268 265 266 271 274 275 277 279 281 284 286 286 286 289 291 291 291 296 297 298 302 303 303 304 308 311 313 315 316 316
238 240 239 238 240 246 251 251 245 245 249 256 259 259 262 265 264 268 269 272 275 278 281 284 285 283 286 289 291 291 291 292 295 297 300 301 302 305 308 308 310 312 312 314
241 243 243 243 243 245 247 252 251 248 251 255 263 265 265 270 270 270 270 272 275 276 277 281 283 281 284 287 289 290 292 293 295 297 299 301 301 303 305 306 308 310 311 314
246 246 245 246 245 249 248 246 248 249 248 248 252 258 264 266 267 268 268 273 275 276 278 280 281 280 283 283 286 288 292 294 294 296 298 299 301 301 303 304 306 309 310 311
247 246 246 248 249 251 249 248 249 249 249 246 249 255 260 265 264 263 267 270 273 277 279 281 281 280 281 283 284 287 289 291 293 295 295 296 299 301 301 303 305 308 310 311
245 246 246 245 250 255 252 250 252 253 250 247 249 252 258 262 264 266 267 267 269 272 276 279 280 278 279 281 283 284 287 289 291 293 293 295 297 299 300 302 306 309 310 312
245 243 241 242 247 251 252 249 248 251 252 248 249 253 257 261 262 264 262 265 268 269 272 275 277 278 278 280 282 283 284 286 288 291 293 295 297 300 302 304 306 307 310 312
244 242 240 240 246 248 250 252 247 247 249 250 251 254 258 257 257 261 263 263 265 268 271 273 277 279 278 278 280 281 283 286 289 291 294 297 298 300 302 303 304 306 309 311
248 243 242 244 247 246 247 250 250 246 248 250 251 255 259 260 257 259 260 261 263 266 269 272 275 278 279 279 280 280 282 285 289 291 294 296 299 300 300 302 304 305 308 309
243 242 245 246 248 249 249 248 246 247 249 249 252 254 256 258 259 259 260 262 263 266 270 273 276 277 278 280 279 278 281 285 288 292 294 296 297 298 299 301 303 304 306 308
243 244 247 249 248 249 250 249 249 249 249 252 253 255 257 260 261 263 263 264 262 265 269 272 276 276 278 280 282 280 282 285 289 291 294 295 296 298 300 301 303 305 306 308
241 244 249 251 249 248 248 249 248 248 250 250 252 253 257 260 261 264 266 265 264 265 268 271 273 275 277 279 280 280 281 284 287 290 292 294 296 298 300 301 303 306 308 309
242 247 250 251 252 252 249 249 248 247 250 250 252 256 259 259 260 262 264 265 266 267 269 272 275 277 278 279 281 282 283 286 288 289 292 294 297 298 299 300 302 305 307 309
Height
5894 5897 5897 5899 5900 5902 5903 5906 5906 5906 5905 5905 5904 5902 5900 5899 5898 5897 5895 5894 5893 5892 5890 5889 5887 5886 5885 5883 5882 5881 5880 5879 5879 5878 5877 5876 5875 5874 5873 5872 5871 5870 5869 5868
5893 5895 5897 5897 5898 5900 5902 5904 5904 5904 5904 5904 5902 5900 5899 5898 5897 5896 5895 5894 5892 5891 5889 5888 5887 5886 5885 5884 5882 5881 5881 5880 5879 5878 5877 5876 5875 5874 5872 5871 5870 5869 5868 5867
5891 5894 5895 5896 5898 5899 5900 5902 5902 5902 5903 5902 5901 5900 5898 5897 5896 5895 5894 5893 5891 5890 5889 5888 5886 5885 5884 5883 5882 5881 5880 5879 5879 5878 5877 5876 5874 5873 5872 5871 5869 5868 5867 5866
5888 5891 5892 5893 5895 5896 5898 5899 5899 5900 5900 5900 5900 5898 5895 5893 5893 5893 5892 5891 5890 5889 5888 5886 5885 5885 5884 5883 5882 5881 5880 5879 5878 5877 5876 5875 5874 5872 5871 5870 5868 5867 5865 5864
5886 5888 5889 5890 5892 5894 5894 5895 5896 5897 5897 5897 5897 5896 5894 5892 5891 5891 5890 5889 5888 5887 5886 5885 5884 5883 5882 5881 5881 5880 5879 5878 5877 5876 5875 5874 5872 5871 5870 5868 5867 5865 5864 5863
5882 5884 5886 5887 5889 5890 5891 5893 5893 5894 5894 5893 5894 5894 5892 5889 5889 5888 5887 5887 5886 5885 5884 5883 5883 5882 5881 5880 5879 5878 5878 5877 5876 5875 5874 5873 5871 5870 5869 5867 5866 5864 5862 5861
5878 5881 5883 5884 5885 5887 5889 5891 5891 5891 5891 5891 5891 5891 5889 5886 5887 5886 5885 5884 5883 5883 5882 5881 5881 5880 5879 5878 5877 5877 5876 5875 5874 5873 5872 5871 5870 5868 5867 5865 5864 5862 5861 5859
5875 5878 5880 5881 5882 5884 5885 5888 5889 5889 5889 5888 5889 5888 5888 5884 5884 5884 5884 5882 5881 5880 5880 5879 5878 5877 5877 5876 5875 5874 5874 5873 5872 5871 5870 5869 5868 5866 5865 5863 5862 5860 5858 5856
5872 5874 5877 5878 5879 5880 5882 5883 5885 5886 5885 5886 5885 5885 5884 5881 5882 5882 5881 5879 5879 5878 5877 5877 5876 5875 5874 5873 5873 5872 5871 5870 5869 5868 5868 5866 5865 5864 5863 5861 5859 5858 5856 5854
5868 5870 5872 5874 5876 5877 5879 5880 5882 5882 5881 5882 5884 5882 5880 5879 5879 5879 5878 5876 5874 5873 5874 5873 5873 5872 5872 5871 5870 5869 5868 5868 5867 5866 5864 5864 5863 5861 5860 5859 5857 5855 5854 5852
5863 5865 5867 5869 5871 5873 5874 5876 5877 5878 5879 5880 5880 5881 5877 5877 5875 5874 5873 5872 5872 5871 5871 5870 5870 5869 5869 5868 5867 5866 5865 5864 5864 5863 5862 5861 5860 5859 5857 5856 5854 5853 5851 5849
5858 5860 5861 5864 5867 5868 5870 5871 5873 5874 5875 5875 5876 5878 5873 5873 5871 5871 5871 5870 5869 5869 5869 5867 5867 5866 5866 5865 5864 5863 5862 5861 5861 5860 5859 5858 5857 5856 5855 5853 5851 5850 5848 5846
5852 5855 5857 5859 5863 5864 5864 5866 5868 5870 5871 5871 5872 5873 5869 5868 5868 5868 5868 5867 5866 5866 5865 5865 5864 5864 5863 5862 5861 5860 5859 5858 5857 5857 5856 5855 5854 5853 5852 5850 5848 5846 5844 5842
5846 5849 5852 5855 5856 5857 5858 5860 5862 5864 5865 5867 5868 5866 5864 5864 5865 5864 5864 5863 5863 5862 5862 5862 5861 5861 5860 5859 5858 5857 5856 5855 5854 5853 5852 5852 5851 5850 5848 5847 5845 5842 5840 5838
5840 5843 5845 5848 5850 5853 5853 5855 5857 5859 5860 5862 5862 5860 5859 5857 5857 5859 5860 5859 5858 5858 5858 5858 5858 5857 5856 5856 5855 5853 5853 5851 5850 5850 5849 5848 5847 5846 5845 5843 5841 5838 5836 5833
5834 5836 5839 5841 5844 5846 5847 5849 5851 5853 5855 5856 5856 5856 5854 5852 5852 5853 5853 5854 5854 5854 5854 5854 5854 5853 5853 5852 5851 5849 5849 5848 5847 5846 5845 5844 5843 5842 5840 5839 5837 5834 5832 5829
5828 5830 5833 5835 5838 5839 5841 5844 5846 5847 5849 5850 5850 5850 5849 5849 5848 5848 5849 5850 5849 5849 5850 5849 5849 5849 5848 5848 5846 5846 5845 5844 5843 5842 5841 5840 5839 5838 5836 5834 5832 5829 5827 5824
5821 5824 5827 5830 5833 5833 5837 5837 5839 5841 5842 5843 5844 5845 5845 5844 5844 5844 5844 5844 5845 5845 5845 5844 5844 5844 5844 5843 5843 5842 5841 5840 5839 5838 5837 5836 5835 5833 5831 5829 5827 5824 5821 5818
5815 5818 5821 5824 5825 5827 5829 5830 5833 5835 5836 5836 5837 5838 5839 5838 5837 5838 5838 5839 5839 5840 5840 5840 5840 5840 5839 5838 5838 5837 5836 5836 5835 5834 5832 5831 5830 5828 5826 5823 5821 5819 5816 5813
5809 5812 5815 5817 5819 5821 5824 5825 5826 5829 5829 5829 5831 5832 5833 5833 5833 5833 5833 5834 5834 5835 5835 5835 5835 5835 5835 5834 5833 5833 5832 5831 5830 5829 5828 5826 5824 5822 5820 5818 5815 5813 5810 5807
5803 5805 5808 5811 5813 5814 5817 5817 5819 5822 5823 5823 5825 5826 5826 5827 5828 5828 5827 5828 5829 5829 5830 5830 5830 5830 5830 5829 5829 5828 5827 5826 5825 5824 5822 5821 5819 5817 5814 5812 5810 5807 5805 5802
5798 5800 5802 5804 5807 5810 5809 5811 5812 5814 5816 5817 5819 5820 5821 5821 5821 5821 5821 5823 5823 5824 5824 5824 5824 5824 5824 5824 5823 5823 5822 5821 5820 5819 5817 5815 5813 5811 5809 5807 5804 5801 5799 5796
5792 5795 5797 5799 5802 5801 5803 5803 5805 5807 5809 5811 5812 5813 5813 5814 5815 5815 5815 5816 5817 5818 5818 5818 5819 5819 5818 5818 5818 5817 5817 5816 5815 5813 5811 5810 5807 5805 5803 5801 5798 5796 5793 5790
5785 5788 5791 5791 5793 5794 5796 5797 5799 5800 5802 5804 5805 5806 5807 5807 5808 5808 5809 5810 5811 5812 5813 5813 5813 5813 5813 5812 5812 5811 5811 5810 5809 5807 5805 5803 5801 5800 5797 5795 5792 5789 5787 5784
5778 5780 5782 5783 5785 5787 5789 5790 5792 5794 5795 5796 5798 5799 5800 5801 5802 5802 5803 5804 5805 5806 5806 5806 5807 5807 5807 5806 5806 5805 5804 5803 5802 5801 5799 5798 5796 5794 5791 5789 5786 5783 5781 5778
5772 5774 5775 5776 5777 5778 5780 5781 5783 5785 5787 5788 5790 5792 5794 5794 5795 5796 5797 5797 5798 5799 5800 5800 5800 5800 5800 5800 5799 5798 5798 5797 5796 5794 5793 5791 5790 5787 5785 5783 5780 5777 5775 5772